Effective Sunday, March 17, 2024, the National Weather Service National Data Buoy Center will discontinue its Dial-A-Buoy Interactive Voice Response system. For more information, see Service Change Notice 24-06 (PDF).

Station KVOA - Viosca Knoll 786 / Petronius (Chevron) Image indicating link to RSS feed of recent meteorological observations for station KVOA


Conditions at KVOA as of
(7:20 pm CST on 03/01/2024)
0120 GMT on 03/02/2024:
     

Click on the graph icon in the table below to see a time series plot of the last five days of that observation.

5-day plot - Wind Direction Wind Direction (WDIR): S ( 180 deg true )
5-day plot - Wind Speed Wind Speed (WSPD): 15.9 kts
5-day plot - Air Temperature Air Temperature (ATMP): 75.2 °F
5-day plot - Dew Point Dew Point (DEWP): 68.0 °F
5-day plot - Visibility Visibility (VIS): 4.3 nmi
Previous observations
TIME
(CST)
5-day plot - Wind Direction
WDIR
 
5-day plot - Wind Speed
WSPD
kts
5-day plot - Wind Gust
GST
kts
5-day plot - Wave Height
WVHT
ft
5-day plot - Dominant Wave Period
DPD
sec
5-day plot - Average Wave Period
APD
sec
5-day plot - Mean Wave Direction
MWD
 
5-day plot - Atmospheric Pressure
PRES
in
5-day plot - Pressure Tendency
PTDY
in
5-day plot - Air Temperature
ATMP
°F
5-day plot - Water Temperature
WTMP
°F
5-day plot - Dew Point
DEWP
°F
5-day plot - Salinity
SAL
psu
5-day plot - Visibility
VIS
nmi
5-day plot - Tide (above MLLW)
TIDE
ft
2024-03-01 07:00 pm S 15.9------- 73.4- 68.0- 4.3-
2024-03-01 06:40 pm S 15.9------- 73.4- 68.0- 4.3-
2024-03-01 06:20 pm S 18.1------- 73.4- 68.0- 4.3-
2024-03-01 06:00 pm S 18.1------- 73.4- 66.2- 6.1-
2024-03-01 05:40 pm S 20.0------- 73.4- 68.0---
2024-03-01 05:20 pm S 19.0------- 73.4- 69.8- 5.2-
2024-03-01 05:00 pm S 22.0------- 75.2- 68.0- 7.0-
2024-03-01 04:40 pm S 20.0------- 75.2- 69.8- 3.5-
2024-03-01 04:20 pm S 19.0------- 75.2- 69.8- 5.2-
2024-03-01 04:00 pm S 19.0------- 75.2- 69.8- 4.3-
2024-03-01 03:40 pm S 20.0------- 75.2- 69.8- 5.2-
2024-03-01 03:20 pm S 20.0------- 75.2- 69.8- 2.6-
2024-03-01 03:00 pm S 14.0------- 75.2- 69.8- 2.2-
2024-03-01 02:40 pm S 13.0------- 75.2- 69.8- 0.7-
2024-03-01 02:20 pm S 15.0 20.0------ 75.2- 69.8- 1.3-
2024-03-01 02:00 pm S 17.1------- 75.2- 69.8- 1.7-
2024-03-01 01:40 pm S 22.0 27.0------ 77.0- 68.0- 1.7-
2024-03-01 01:20 pm S 19.0------- 77.0- 68.0- 4.3-
2024-03-01 01:00 pm S 19.0------- 77.0- 68.0- 4.3-
2024-03-01 12:40 pm S 18.1------- 77.0- 68.0- 4.3-
2024-03-01 12:20 pmSSE 15.9------- 77.0- 68.0- 5.2-
2024-03-01 12:00 pmSSE 17.1------- 77.0- 69.8- 4.3-
2024-03-01 11:40 am SE 14.0 21.0------ 77.0- 69.8- 3.5-
2024-03-01 11:20 am SE 17.1------- 75.2- 69.8- 3.5-
2024-03-01 11:00 am SE 21.0------- 75.2- 69.8- 3.5-
2024-03-01 10:40 am SE 21.0------- 75.2- 69.8- 4.3-
2024-03-01 10:20 am SE 22.9------- 75.2- 69.8- 4.3-
2024-03-01 10:00 am SE 22.0------- 75.2- 69.8- 3.5-
2024-03-01 09:40 amESE 18.1------- 75.2- 69.8- 3.5-
2024-03-01 09:20 am SE 19.0------- 75.2- 69.8- 3.5-
2024-03-01 09:00 am SE 20.0------- 73.4- 69.8- 3.5-
2024-03-01 08:40 am SE 19.0------- 73.4- 68.0- 3.5-
2024-03-01 08:20 am SE 21.0------- 73.4- 68.0- 3.5-
2024-03-01 08:00 am SE 22.0------- 73.4- 68.0- 2.6-
2024-03-01 07:40 am SE 24.1------- 73.4- 68.0- 2.6-
2024-03-01 07:20 am SE 26.0------- 73.4- 68.0- 2.6-
2024-03-01 07:00 am SE 25.1------- 73.4- 69.8- 2.6-
2024-03-01 06:40 am SE 25.1------- 73.4- 68.0- 2.6-
2024-03-01 06:20 amESE 22.9------- 73.4- 68.0- 3.5-
2024-03-01 06:00 amESE 22.0------- 73.4- 68.0- 3.5-
2024-03-01 05:40 amESE 22.9------- 73.4- 68.0- 3.5-
2024-03-01 05:20 amESE 22.9------- 73.4- 68.0- 3.5-
2024-03-01 05:00 amESE 22.9------- 71.6- 68.0- 3.5-
2024-03-01 04:40 am SE 20.0------- 73.4- 68.0- 3.5-
2024-03-01 04:20 am SE 21.0 27.0------ 73.4- 68.0- 4.3-
2024-03-01 04:00 am SE 26.0------- 73.4- 68.0- 4.3-
2024-03-01 03:40 am SE 26.0------- 71.6- 66.2- 4.3-
2024-03-01 03:20 am SE 22.0------- 71.6- 68.0---
2024-03-01 03:00 amESE 22.9------- 71.6- 68.0- 4.3-
2024-03-01 02:40 amESE 25.1------- 73.4- 68.0- 5.2-
2024-03-01 02:20 amESE 26.0------- 71.6- 66.2- 5.2-
2024-03-01 02:00 amESE 25.1 32.1------ 73.4- 66.2- 5.2-
2024-03-01 01:40 amESE 28.9------- 71.6- 66.2- 5.2-
2024-03-01 01:20 amESE 24.1------- 71.6- 66.2- 5.2-
2024-03-01 01:00 amESE 24.1------- 71.6- 66.2- 5.2-
2024-03-01 12:40 amESE 22.9------- 71.6- 66.2- 6.1-
2024-03-01 12:20 amESE 25.1------- 71.6- 66.2- 6.1-
2024-03-01 12:00 amESE 24.1------- 71.6- 66.2- 6.1-
2024-02-29 11:40 pmESE 21.0------- 71.6- 64.4- 6.1-
2024-02-29 11:20 pm E 25.1------- 71.6- 64.4- 6.1-
2024-02-29 11:00 pm E 24.1------- 71.6- 64.4- 5.2-
2024-02-29 10:40 pmESE 22.0------- 71.6- 64.4- 6.1-
2024-02-29 10:20 pm E 24.1------- 69.8- 64.4- 6.1-
2024-02-29 10:00 pm E 26.0------- 69.8- 62.6- 6.1-
2024-02-29 09:40 pm E 25.1------- 69.8- 62.6- 6.1-
2024-02-29 09:20 pm E 26.0------- 69.8- 60.8- 6.1-
2024-02-29 09:00 pm E 25.1 29.9------ 69.8- 60.8- 7.0-
2024-02-29 08:40 pm E 24.1------- 68.0- 59.0- 7.8-
2024-02-29 08:20 pm E 25.1------- 68.0- 57.2- 7.8-
2024-02-29 08:00 pm E 22.9------- 68.0- 57.2- 7.8-
2024-02-29 07:40 pmENE 22.9------- 68.0- 57.2- 7.8-
2024-02-29 07:20 pm E 24.1------- 66.2- 57.2- 7.8-
2024-02-29 07:00 pmENE 22.0------- 66.2- 55.4- 7.8-